This demonstration page uses our WeatherBlox Daily Observations layout. Learn more.

Left ArrowRight Arrow

Hourly Observations for March 28, 2021

Temp ( °F °C ) Dew Point ( °F °C ) Humidity (%) Winds ( mph kmh ) Pressure ( in mb ) Visibility ( mi km ) Precip ( " mm )
12:54 am 00:54 Clear 38 3.3 29 -1.7 70 70 NNW 13 20 30.21 1023 10 16 0.00 0.00
1:54 am 01:54 Clear 36 2.2 28 -2.2 73 73 NW 9 15 30.21 1023 10 16 0.00 0.00
2:54 am 02:54 Clear 35 1.7 28 -2.2 76 76 NW 6 9 30.22 1023 10 16 0.00 0.00
3:54 am 03:54 Clear 34 1.1 27 -2.8 76 76 NW 5 7 30.22 1023 10 16 0.00 0.00
4:54 am 04:54 Clear 34 1.1 27 -2.8 76 76 WNW 6 9 30.22 1024 10 16 0.00 0.00
5:54 am 05:54 Mostly Clear 33 0.6 27 -2.8 78 78 NNW 6 9 30.24 1024 10 16 0.00 0.00
6:54 am 06:54 Mostly Cloudy 34 1.1 27 -2.8 76 76 NNW 7 11 30.26 1025 10 16 0.00 0.00
7:54 am 07:54 Mostly Sunny 34 1.1 27 -2.8 76 76 NW 5 7 30.28 1025 10 16 0.00 0.00
8:54 am 08:54 Sunny 39 3.9 29 -1.7 67 67 NW 6 9 30.29 1026 10 16 0.00 0.00
9:54 am 09:54 Sunny 43 6.1 30 -1.1 60 60 Calm 30.30 1026 10 16 0.00 0.00
10:54 am 10:54 Sunny 46 7.8 29 -1.7 51 51 Calm 30.30 1026 10 16 0.00 0.00
11:54 am 11:54 Sunny 49 9.4 28 -2.2 44 44 VRB 5 7 30.28 1025 10 16 0.00 0.00
12:54 pm 12:54 Sunny 53 11.7 27 -2.8 37 37 SW 10 17 30.24 1024 10 16 0.00 0.00
1:54 pm 13:54 Sunny 56 13.3 29 -1.7 36 36 WSW 8 13 30.22 1023 10 16 0.00 0.00
2:54 pm 14:54 Sunny 60 15.6 28 -2.2 30 30 W 8 13 30.17 1022 10 16 0.00 0.00
3:54 pm 15:54 Sunny 60 15.6 29 -1.7 31 31 SW 8 13 30.14 1021 10 16 0.00 0.00
4:54 pm 16:54 Sunny 63 17.2 30 -1.1 29 29 SW 8 13 30.09 1019 10 16 0.00 0.00
5:54 pm 17:54 Sunny 64 17.8 34 1.1 33 33 S 10 17 30.08 1019 10 16 0.00 0.00
6:54 pm 18:54 Sunny 64 17.8 32 0 30 30 SSW 10 17 30.04 1017 10 16 0.00 0.00
7:54 pm 19:54 Clear 53 11.7 34 1.1 48 48 S 10 17 30.03 1017 10 16 0.00 0.00
8:54 pm 20:54 Clear 54 12.2 35 1.7 49 49 S 12 19 30.01 1016 10 16 0.00 0.00
9:54 pm 21:54 Clear 54 12.2 35 1.7 49 49 S 15 24 30.00 1016 10 16 0.00 0.00
10:54 pm 22:54 Clear 52 11.1 35 1.7 53 53 S 13 20 29.98 1015 10 16 0.00 0.00
11:54 pm 23:54 Clear 52 11.1 35 1.7 53 53 S 17 28 29.94 1014 10 16 0.00 0.00

Powered by AerisWeather